Vero Beach, FL

7:54 PM EST on December 04, 2016 (GMT -0500)
Vero Beach Municipal

Weather History for KVRB - April, 2014

Change the Weather History Date:

Wednesday, April 23, 2014

  Actual Average Record
Temperature  
Mean Temperature 71 °F 72 °F  
Max Temperature 81 °F 81 °F 92 °F (1988)
Min Temperature 60 °F 62 °F 46 °F (1993)
Degree Days  
Heating Degree Days 0 0  
Month to date heating degree days 5 13  
Since 1 July heating degree days 268 453  
Cooling Degree Days 6 7  
Month to date cooling degree days 151 136  
Year to date cooling degree days 479 404  
Growing Degree Days 20 (Base 50)    
Moisture  
Dew Point 64 °F    
Average Humidity 77    
Maximum Humidity 100    
Minimum Humidity 54    
Precipitation  
Precipitation 0.00 in 0.09 in 0.90 in (1997)
Month to date precipitation 1.99 2.13  
Year to date precipitation 10.49 11.42  
Sea Level Pressure  
Sea Level Pressure 29.92 in    
Wind  
Wind Speed 7 mph (WNW)    
Max Wind Speed 12 mph    
Max Gust Speed 16 mph    
Visibility 10 miles    
Events      
T = Trace of Precipitation, MM = Missing Value Source: NWS Daily Summary

Daily Weather History Graph

Daily Weather History Graph

Search for Another Location

Airport or City:

Trip Planner

Search our weather history database for the weather conditions in past years. The results will help you decide how hot, cold, wet, or windy it might be!

Date:

Astronomy

Apr. 23, 2014 Rise Set
Actual Time 6:49 AM EDT 7:51 PM EDT
Civil Twilight 6:24 AM EDT 8:15 PM EDT
Nautical Twilight 5:56 AM EDT 8:44 PM EDT
Astronomical Twilight 5:26 AM EDT 9:13 PM EDT
Moon 2:47 AM EDT (4/23) 2:27 PM EDT (4/23)
Length of Visible Light 13h 50m
Length of Day
13h 01m
Waning Crescent, 35% of the Moon is Illuminated
Apr 23
Waning Crescent
Apr 29
New
May 6
First Quarter
May 14
Full
May 21
Last Quarter

Hourly Weather History & Observations

Time (EDT) Temp. Dew Point Humidity Pressure Visibility Wind Dir Wind Speed Gust Speed Precip Events Conditions
12:53 AM 64.0 °F 64.0 °F 100% 29.91 in 10.0 mi West 4.6 mph - N/A   Clear
1:53 AM 64.0 °F 64.0 °F 100% 29.89 in 10.0 mi West 5.8 mph - N/A   Clear
2:53 AM 64.0 °F 63.0 °F 96% 29.87 in 10.0 mi West 5.8 mph - N/A   Clear
3:53 AM 63.0 °F 62.1 °F 97% 29.88 in 10.0 mi West 5.8 mph - N/A   Clear
4:53 AM 62.1 °F 61.0 °F 96% 29.88 in 9.0 mi West 5.8 mph - N/A   Clear
5:53 AM 60.1 °F 59.0 °F 96% 29.89 in 7.0 mi West 4.6 mph - N/A   Clear
6:53 AM 60.1 °F 60.1 °F 100% 29.92 in 7.0 mi WNW 5.8 mph - N/A   Clear
7:53 AM 64.0 °F 63.0 °F 96% 29.94 in 10.0 mi WNW 6.9 mph - N/A   Clear
8:53 AM 68.0 °F 64.0 °F 87% 29.95 in 10.0 mi NW 9.2 mph - N/A   Partly Cloudy
9:53 AM 72.0 °F 64.0 °F 76% 29.96 in 10.0 mi NNW 6.9 mph - N/A   Scattered Clouds
10:16 AM 72.0 °F 64.0 °F 76% 29.96 in 10.0 mi Variable 4.6 mph - N/A   Mostly Cloudy
10:41 AM 73.9 °F 63.0 °F 68% 29.97 in 10.0 mi WNW 8.1 mph - N/A   Partly Cloudy
10:53 AM 73.9 °F 63.0 °F 68% 29.96 in 10.0 mi West 8.1 mph - N/A   Scattered Clouds
11:53 AM 75.9 °F 62.1 °F 62% 29.96 in 10.0 mi West 8.1 mph - N/A   Partly Cloudy
1:53 PM 77.0 °F 64.9 °F 66% 29.93 in 10.0 mi Variable 5.8 mph - N/A   Partly Cloudy
2:53 PM 79.0 °F 64.0 °F 60% 29.91 in 10.0 mi ENE 9.2 mph - N/A   Clear
4:53 PM 78.1 °F 63.0 °F 60% 29.89 in 10.0 mi East 9.2 mph - N/A   Clear
5:53 PM 75.9 °F 64.0 °F 67% 29.89 in 10.0 mi East 6.9 mph - N/A   Clear
6:53 PM 75.9 °F 64.0 °F 67% 29.90 in 10.0 mi East 8.1 mph - N/A   Clear
7:53 PM 73.0 °F 64.9 °F 76% 29.91 in 10.0 mi ESE 6.9 mph - N/A   Partly Cloudy
8:53 PM 72.0 °F 64.9 °F 78% 29.93 in 10.0 mi ESE 5.8 mph - N/A   Partly Cloudy
9:53 PM 73.0 °F 66.9 °F 81% 29.94 in 10.0 mi SE 8.1 mph - N/A   Mostly Cloudy
10:53 PM 73.0 °F 66.9 °F 81% 29.95 in 10.0 mi SE 6.9 mph - N/A   Clear
11:53 PM 71.1 °F 66.9 °F 87% 29.95 in 10.0 mi SE 4.6 mph - N/A   Clear